[[{"header":{"parameterUnit":"m.s-1","parameterCategory":1,"la1":30.2991,"la2":30.254,"lo1":-89.0895,"lo2":-89.0444,"dy":0.0017,"dx":0.0017,"nx":28,"ny":28,"refTime":"2024-04-30T09:00:00:Z","depth":0,"parameterNumber":2,"parameterNumberName":"U-component_of_WINDS"},"data":[0,0,0,0,0,0,0,0,0,0,0,0,0,0,0,0,0,0,0,0,0,0,0,0,0,0,0,0,0,0,0,0,0,0,0,0,0,0,0,0,0,0,0,0,0,0,0,0,0,0,0,0,0,0,0,0,0,0,-2.1493,-2.1493,0,-2.1499,-2.1499,-2.1499,-2.1469,-2.1468,-2.1468,-2.1467,-2.1471,-2.1472,-2.1473,0,0,0,0,0,0,0,0,0,0,0,0,0,-2.1456,-2.1456,-2.1493,-2.1493,-2.1493,-2.1499,-2.1499,-2.1499,-2.1469,-2.1468,-2.1467,-2.1466,-2.1471,-2.1472,-2.1473,0,0,0,0,0,0,0,0,0,0,0,0,0,-2.1468,-2.1457,-2.1493,-2.1479,-2.1478,-2.1499,-2.1499,-2.1499,-2.147,-2.1468,-2.1467,-2.1466,-2.1471,-2.1472,-2.1473,-2.1508,0,0,-2.1478,-2.1478,0,0,0,0,0,0,0,0,-2.1467,-2.1469,-2.1481,-2.148,-2.1479,-2.1482,-2.1488,-2.1502,-2.147,-2.1473,-2.1467,-2.1465,-2.1476,-2.1477,-2.1481,-2.1508,-2.1509,-2.1478,-2.1479,-2.1479,-2.148,0,0,0,0,0,0,0,-2.1466,-2.1469,-2.1495,-2.1481,-2.148,-2.1473,-2.1473,-2.149,-2.1481,-2.1472,-2.147,-2.1471,-2.1475,-2.148,-2.1481,-2.1509,-2.1478,-2.1479,-2.148,-2.148,-2.1567,-2.1569,0,0,0,0,0,0,-2.1467,-2.1468,-2.1495,-2.1495,-2.147,-2.1474,-2.1475,-2.1482,-2.1481,-2.148,-2.1473,-2.147,-2.1478,-2.1479,-2.1481,-2.1522,-2.1479,-2.1481,-2.1481,-2.1566,-2.1568,-2.1569,0,0,0,0,0,0,-2.1467,-2.147,-2.1495,-2.1481,-2.1484,-2.1476,-2.1485,-2.1483,-2.1487,-2.1481,-2.148,-2.1479,-2.1477,-2.1479,-2.1502,-2.1522,-2.1481,-2.1483,-2.1564,-2.1566,-2.1569,-2.1605,0,0,0,0,0,0,-2.1466,-2.147,-2.1483,-2.1482,-2.1485,-2.1516,-2.1486,-2.1484,-2.149,-2.1487,-2.1487,-2.1485,-2.1476,-2.15,-2.1504,-2.1523,-2.1484,-2.1562,-2.1565,-2.1568,-2.1602,-2.1608,-2.1613,0,0,0,0,0,-2.1464,-2.1492,-2.1483,-2.1487,-2.15,-2.1517,-2.1519,-2.1508,-2.1492,-2.1505,-2.1502,-2.1485,-2.152,-2.1503,-2.1506,-2.1527,-2.1561,-2.1564,-2.1568,-2.1599,-2.1607,-2.1613,0,0,0,0,0,0,-2.1493,-2.1491,-2.1482,-2.151,-2.1514,-2.1512,-2.1528,-2.1516,-2.1524,-2.1521,-2.1507,-2.1507,-2.1533,-2.1532,-2.1514,-2.1561,-2.1538,-2.1542,-2.156,-2.1568,-2.1573,-2.1572,-2.1485,0,0,0,0,0,-2.1503,-2.1517,-2.1514,-2.1539,-2.1542,-2.1535,-2.1542,-2.1533,-2.1537,-2.1538,-2.1536,-2.154,-2.1552,-2.156,-2.1571,-2.1602,-2.1602,-2.1618,-2.1624,-2.1629,-2.1632,-2.1651,-2.1658,-2.158,-2.158,-2.158,0,0,-2.1523,-2.1524,-2.1533,-2.1545,-2.1547,-2.1562,-2.1536,-2.1553,-2.1564,-2.154,-2.1563,-2.1562,-2.1566,-2.1594,-2.1606,-2.1594,-2.1654,-2.1633,-2.1637,-2.1638,-2.1655,-2.1662,-2.1669,-2.1582,-2.1582,-2.1582,0,0,-2.1567,-2.1568,-2.159,-2.1594,-2.1598,-2.1594,-2.16,-2.16,-2.1599,-2.1622,-2.1606,-2.1619,-2.1639,-2.1643,-2.1648,-2.1697,-2.1683,-2.1701,-2.1731,-2.1749,-2.1755,-2.176,-2.1778,-2.1785,-2.1705,-2.1705,-2.1705,0,-2.159,-2.1612,-2.1602,-2.1621,-2.1627,-2.1609,-2.1631,-2.1635,-2.1643,-2.1648,-2.1635,-2.1662,-2.1663,-2.1693,-2.1705,-2.171,-2.1716,-2.17,-2.1755,-2.176,-2.1765,-2.1782,-2.1789,-2.1707,-2.1707,-2.1707,-2.1707,0,-2.1642,-2.1657,-2.1674,-2.1684,-2.1693,-2.1713,-2.1706,-2.1717,-2.1709,-2.1706,-2.1731,-2.1732,-2.1743,-2.175,-2.1742,-2.178,-2.1772,-2.1757,-2.1733,-2.1775,-2.179,-2.1797,-2.171,-2.171,-2.1709,-2.1708,0,0,-2.17,-2.1707,-2.1713,-2.1718,-2.1724,-2.1736,-2.1757,-2.1769,-2.1778,-2.1785,-2.1802,-2.1822,-2.1809,-2.1814,-2.1807,-2.1823,-2.1863,-2.1806,-2.1806,-2.1817,-2.1906,-2.1917,-2.1924,-2.1855,-2.1856,-2.1857,-2.1906,0,-2.1743,-2.1778,-2.1772,-2.1806,-2.1821,-2.1806,-2.1824,-2.183,-2.1829,-2.1842,-2.1841,-2.1856,-2.1837,-2.1841,-2.1856,-2.1855,-2.1881,-2.1852,-2.1871,-2.1871,-2.1869,-2.1932,-2.1943,-2.1988,-2.1912,-2.1913,-2.1914,0,-2.1797,-2.1808,-2.1844,-2.185,-2.1856,-2.1872,-2.1884,-2.1897,-2.1904,-2.1903,-2.1911,-2.1901,-2.1922,-2.19,-2.1929,-2.1909,-2.1917,-2.1918,-2.192,-2.192,-2.1894,-2.1934,-2.2002,-2.2009,-2.1923,-2.1923,-2.1922,0,-2.1836,-2.186,-2.1885,-2.189,-2.1897,-2.1909,-2.1913,-2.1919,-2.1928,-2.1939,-2.1944,-2.1957,-2.1964,-2.1975,-2.197,-2.1953,-2.2001,-2.1977,-2.2,-2.2,-2.2008,-2.2008,-2.2079,-2.2015,-2.2015,-2.2015,-2.2015,0,-2.1884,-2.1907,-2.1903,-2.1918,-2.1944,-2.1938,-2.1963,-2.1965,-2.1971,-2.1987,-2.1976,-2.1991,-2.1983,-2.1998,-2.1995,-2.202,-2.2023,-2.2023,-2.2021,-2.2023,-2.2023,-2.2027,-2.2023,-2.2017,-2.2017,-2.2016,-2.2016,0,-2.1931,-2.193,-2.1956,-2.1962,-2.1964,-2.1983,-2.1988,-2.2003,-2.2003,-2.2023,-2.2028,-2.2027,-2.2045,-2.2041,-2.206,-2.2057,-2.2089,-2.2084,-2.2087,-2.2086,-2.2109,-2.2106,-2.2183,-2.2194,-2.2124,-2.2125,-2.2126,0,-2.1961,-2.1979,-2.1987,-2.1998,-2.2003,-2.2019,-2.2029,-2.2024,-2.2035,-2.2046,-2.206,-2.2077,-2.209,-2.2118,-2.2119,-2.2134,-2.2129,-2.2155,-2.2131,-2.2133,-2.2129,-2.2128,-2.213,-2.2159,-2.216,-2.2161,-2.2161,0,-2.2015,-2.2014,-2.2029,-2.2044,-2.2056,-2.2068,-2.2078,-2.2087,-2.2083,-2.2096,-2.2115,-2.2125,-2.2146,-2.2162,-2.2177,-2.2181,-2.2171,-2.217,-2.2176,-2.2177,-2.2178,-2.2178,-2.2099,-2.2167,-2.2167,-2.2166,-2.2166,-2.2166,-2.2054,-2.207,-2.2079,-2.2096,-2.2104,-2.2115,-2.213,-2.2133,-2.2148,-2.2165,-2.2162,-2.2183,-2.2192,-2.2211,-2.2217,-2.2233,-2.2223,-2.2232,-2.2234,-2.2236,-2.2239,-2.2177,-2.2236,-2.2236,-2.2236,-2.2236,-2.2235,0,-2.2107,-2.2113,-2.2129,-2.2145,-2.2159,-2.2151,-2.2163,-2.2175,-2.2194,-2.2204,-2.2218,-2.224,-2.2257,-2.2261,-2.2278,-2.2291,-2.2287,-2.2295,-2.2294,-2.2295,-2.2247,-2.224,-2.2298,-2.2298,-2.2298,-2.2298,-2.2298,-2.2298,-2.2136,-2.2163,-2.2164,-2.2195,-2.2201,-2.2222,-2.2229,-2.224,-2.2248,-2.2274,-2.2288,-2.2292,-2.2299,-2.2317,-2.2333,-2.2334,-2.234,-2.2351,-2.235,-2.2304,-2.2298,-2.2292,-2.2285,-2.2352,-2.2353,-2.2396,-2.2397,-2.2397]},{"header":{"parameterUnit":"m.s-1","parameterCategory":1,"la1":30.2991,"la2":30.254,"lo1":-89.0895,"lo2":-89.0444,"dy":0.0017,"dx":0.0017,"nx":28,"ny":28,"refTime":"2024-04-30T09:00:00:Z","depth":0,"parameterNumber":3,"parameterNumberName":"V-component_of_WINDS"},"data":[0,0,0,0,0,0,0,0,0,0,0,0,0,0,0,0,0,0,0,0,0,0,0,0,0,0,0,0,0,0,0,0,0,0,0,0,0,0,0,0,0,0,0,0,0,0,0,0,0,0,0,0,0,0,0,0,0,0,2.7285,2.7285,0,2.7308,2.7309,2.7309,2.7366,2.7368,2.7369,2.737,2.7387,2.7387,2.7386,0,0,0,0,0,0,0,0,0,0,0,0,0,2.7286,2.7286,2.7285,2.7285,2.7286,2.7308,2.7309,2.7309,2.7366,2.7368,2.7369,2.7371,2.7388,2.7387,2.7386,0,0,0,0,0,0,0,0,0,0,0,0,0,2.7295,2.7285,2.7285,2.7317,2.732,2.7308,2.7309,2.7309,2.7366,2.7368,2.737,2.7371,2.7388,2.7387,2.7386,2.7342,0,0,2.7383,2.7382,0,0,0,0,0,0,0,0,2.7294,2.7295,2.7312,2.7315,2.7318,2.7337,2.7315,2.732,2.7365,2.7348,2.737,2.7372,2.7369,2.7369,2.7369,2.7343,2.7344,2.7383,2.7382,2.7382,2.7381,0,0,0,0,0,0,0,2.7293,2.7294,2.7294,2.7312,2.7316,2.7329,2.7332,2.7316,2.7347,2.735,2.7354,2.7357,2.7371,2.737,2.737,2.7344,2.7383,2.7382,2.7381,2.7381,2.7285,2.7284,0,0,0,0,0,0,2.7289,2.7293,2.7293,2.7295,2.7311,2.7327,2.7331,2.7329,2.7348,2.7353,2.7355,2.7359,2.7371,2.7371,2.7371,2.7322,2.7382,2.7381,2.738,2.7287,2.7285,2.7283,0,0,0,0,0,0,2.7289,2.7288,2.7292,2.7295,2.7297,2.7326,2.7322,2.7328,2.7328,2.7352,2.7357,2.7349,2.7372,2.7372,2.735,2.7324,2.738,2.7379,2.729,2.7287,2.7284,2.7224,0,0,0,0,0,0,2.7288,2.7288,2.7273,2.7294,2.7296,2.7272,2.7321,2.7327,2.7327,2.7332,2.7348,2.7352,2.7374,2.7351,2.7349,2.7323,2.7378,2.7292,2.7288,2.7285,2.7229,2.722,2.7212,0,0,0,0,0,2.7288,2.7253,2.7272,2.7271,2.7278,2.727,2.7271,2.7299,2.7324,2.7309,2.7324,2.7351,2.7327,2.7348,2.7346,2.732,2.7294,2.7289,2.7285,2.7232,2.7221,2.7212,0,0,0,0,0,0,2.7224,2.7256,2.7277,2.7248,2.7257,2.728,2.7261,2.7286,2.7286,2.7291,2.7324,2.7327,2.73,2.7308,2.7331,2.728,2.7315,2.731,2.7276,2.7265,2.7257,2.7255,2.7377,0,0,0,0,0,2.7208,2.7201,2.7228,2.72,2.7203,2.7232,2.7229,2.725,2.7259,2.7262,2.7276,2.7282,2.7276,2.7271,2.7267,2.7231,2.7235,2.7212,2.7203,2.7196,2.7191,2.7174,2.7164,2.7269,2.7269,2.7269,0,0,2.7171,2.7188,2.7181,2.7188,2.7197,2.7187,2.7234,2.7221,2.7215,2.726,2.724,2.7251,2.726,2.7231,2.7218,2.7236,2.7164,2.7191,2.7185,2.7184,2.7168,2.7158,2.7149,2.7266,2.7266,2.7267,0,0,2.7101,2.7113,2.7092,2.7101,2.7115,2.7134,2.7129,2.715,2.7159,2.7141,2.7175,2.7166,2.7155,2.7161,2.7162,2.7097,2.7121,2.7094,2.705,2.7033,2.7024,2.7017,2.6994,2.6985,2.7089,2.7089,2.7089,0,2.7054,2.7043,2.7077,2.7064,2.7066,2.7109,2.7087,2.7093,2.7104,2.7104,2.7125,2.7113,2.7122,2.7095,2.708,2.7079,2.7074,2.7092,2.7023,2.7016,2.701,2.6988,2.698,2.7086,2.7086,2.7086,2.7087,0,2.6985,2.6977,2.6958,2.697,2.697,2.6952,2.6982,2.6978,2.6999,2.7016,2.6997,2.701,2.701,2.7005,2.7025,2.6981,2.6993,2.7018,2.7053,2.6996,2.6976,2.6968,2.7081,2.7082,2.7083,2.7084,0,0,2.6873,2.6907,2.6899,2.6906,2.6926,2.692,2.6904,2.6907,2.6902,2.6908,2.6896,2.6887,2.6911,2.6912,2.6933,2.6918,2.6866,2.6945,2.6946,2.693,2.682,2.6801,2.6791,2.6884,2.6882,2.6881,2.6819,0,2.6807,2.6785,2.6816,2.6785,2.6779,2.6821,2.6807,2.6817,2.6833,2.6829,2.6845,2.6839,2.6871,2.6872,2.6859,2.6875,2.6844,2.688,2.6871,2.687,2.6867,2.678,2.6759,2.67,2.6812,2.681,2.6809,0,2.6727,2.6733,2.6703,2.6727,2.6725,2.6713,2.6718,2.6714,2.6726,2.6739,2.6742,2.6768,2.6754,2.6789,2.6769,2.6793,2.6791,2.6799,2.6797,2.6797,2.6836,2.6777,2.6682,2.6673,2.6798,2.6798,2.6799,0,2.6649,2.6649,2.6632,2.6637,2.6664,2.6654,2.6664,2.6679,2.6679,2.6683,2.6684,2.6685,2.6686,2.6686,2.6712,2.6735,2.6689,2.6726,2.6698,2.6697,2.6685,2.6685,2.6588,2.6684,2.6684,2.6685,2.6685,0,2.6573,2.6552,2.6598,2.6587,2.6566,2.6601,2.6579,2.6593,2.6606,2.6598,2.6634,2.6625,2.666,2.6655,2.6675,2.6655,2.6655,2.6664,2.667,2.6661,2.666,2.666,2.6664,2.6682,2.6683,2.6683,2.6684,0,2.6481,2.6511,2.6495,2.6523,2.653,2.6513,2.6536,2.6527,2.6546,2.6536,2.6535,2.6564,2.656,2.6587,2.6586,2.66,2.6571,2.6583,2.6567,2.6571,2.6541,2.6544,2.644,2.6428,2.6532,2.6531,2.653,0,2.643,2.6416,2.6444,2.6443,2.6452,2.6449,2.645,2.6485,2.6484,2.6499,2.6487,2.6487,2.6488,2.6479,2.6499,2.65,2.6512,2.6476,2.6512,2.6505,2.6512,2.6513,2.6511,2.6468,2.6467,2.6466,2.6465,0,2.6337,2.6353,2.6355,2.6362,2.6363,2.6369,2.6378,2.6374,2.6412,2.6409,2.6407,2.6409,2.641,2.6409,2.6414,2.6423,2.645,2.6454,2.6447,2.6438,2.6429,2.6434,2.6546,2.6456,2.6457,2.6457,2.6458,2.6458,2.6264,2.6255,2.6273,2.6274,2.6285,2.6293,2.6287,2.6306,2.6306,2.6312,2.6332,2.6326,2.6339,2.6349,2.6356,2.6352,2.6369,2.6359,2.6356,2.6354,2.6348,2.6431,2.6352,2.6353,2.6353,2.6353,2.6353,0,2.6173,2.6188,2.6189,2.6202,2.6202,2.6231,2.6242,2.624,2.6236,2.6247,2.6249,2.6247,2.6246,2.6268,2.627,2.6262,2.6274,2.6261,2.6262,2.6263,2.6333,2.6338,2.6251,2.6251,2.6251,2.6251,2.6251,2.6251,2.6126,2.6111,2.613,2.6121,2.6136,2.6132,2.6137,2.6144,2.6154,2.6151,2.6152,2.6167,2.6182,2.6186,2.6187,2.6193,2.6192,2.6174,2.6184,2.6249,2.6258,2.6268,2.6273,2.6174,2.6174,2.6116,2.6115,2.6115]}]]